Superbiker Mettet 2011 : Tous les temps des qualifications

Les conditions climatiques du Superbiker de Mettet 2011 n’ont pas facilitées la tâche des pilotes pour ces séances qualificatives mais la hiérarchie est à peu près respectée:

Meilleur temps chrono : STARBIKERS et PRESTIGES

  • 1   64 BIDART Sylvain 2:07.303
  • 2   18 FEBVRE Romain 2:07.676
  • 3   131 HERMUNEN Mauno 2:08.018
  • 4   45 FRAIKIN Marc 2:09.595
  • 5   103 TORTELLI Sebastien 2:09.715
  • 6   4 CHAREYRE Thomas 2:09.752
  • 7   30 LAZZARINI Ivan 2:10.036
  • 8   121 BOOG Xavier 2:10.243
  • 9   101 DELEPINE Gerald 2:10.478
  • 10   112 HIEMER Bernd 2:10.631
  • 11   213 DERIDDER Lionel 2:10.699
  • 12   110 MELOTTE Cédric 2:10.836
  • 13   100 SEEL Eddy 2:11.001
  • 14   17 VAN DRUNEN Marcel 2:11.096
  • 15   15 BREUGELMANS Sven 2:11.358
  • 16   74 KUNZEL Jurgen 2:11.598
  • 17   5 BARTOLINI Andrea 2:11.798
  • 18   78 DEMARIA Yves 2:11.945
  • 19   21 CHAREYRE Adrien 2:12.727
  • 20   99 RAVAGLIA Christian 2:13.037
  • 21   75 CHAMBON Boris 2:13.430
  • 22   9 DE DIJCKER Ken 2:14.698
  • 23   6 BURKHART Mark 2:15.563
  • 24   12 JADOUL Didier 2:15.757
  • 25   33 GAILLARD Jean Marc 2:16.289
  • 26   14 HOFFMAN Dustin 2:16.661
  • 27   43 DYMOND Micky 2:17.300
  • 28   20 DEBROUX Patrick 2:17.310
  • 29   03 SMETS Joel 2:17.844
  • 30   144 DELANNOY Eric 2:18.418
  • 31   23 BOSTROM Benjamin 2:19.059
  • 32   16 AQUINO Tommy 2:19.906
  • 33   3 CHAMBON Stephane 2:20.328
  • 34   11 GOBLET Jean-François 2:21.187
  • 35   3x WARD Jeff 2:23.149
  • 36   154 MONTE Frank 2:27.825
  • 37   32 BOSTROM Eric 2:34.247
  • 38   224 LECHIEN Ron 2:35.404

Meilleur temps chrono : SUPERMOTO

1 57 VOORWINDEN Maik 1:54.386 1:59.777 1:54.386
2 35 MUELLER Dani 1:55.432 1:58.783 1:55.432
3 54 SOYEURT Sébastien 1:56.119 2:02.461 1:56.119
4 42 SCHWILLER CYRILL 1:56.222 1:56.222 1:58.837
5 31 BLOT Stephane 1:56.413 2:00.393 1:56.413
6 22 WINSTANLEY Matthew 1:56.490 1:56.490 2:03.790
7 290 GUERIN Fred 1:56.515 1:59.983 1:56.515
8 270 NAEPFLING Harry 1:57.356 1:57.356 2:01.943
9 174 HODGSON Chris 1:57.537 2:00.903 1:57.537
10 218 GÖTZL Randy 1:57.664 2:02.256 1:57.664
11 282 BARTOLINI Fabrizio 1:57.707 2:00.816 1:57.707
12 10 MANZO Massimo 1:57.907 2:01.018 1:57.907
13 104 WAUTERS Arnaud 1:58.087 2:03.628 1:58.087
14 44 BOUGARD Waren 1:58.135 1:58.135 2:02.411
15 129 SALSTOLA Sami 1:58.324 1:58.324 2:05.767
16 208 PETARD Eddy 1:59.498 1:59.498 2:10.539
17 67 SLUYS Rudi 1:59.761 2:05.082 1:59.761
18 134 VAN HAMOND Ramon 2:00.253 2:05.187 2:00.253
19 288 SVANBERG Ken 2:00.256 2:00.256 2:06.309
20 180 FORD – DUNN Anthony 2:00.277 2:00.277 2:05.833
21 113 KLEM Toni 2:00.484 2:00.484 2:06.111
22 276 MOSCHINI Andrea 2:00.668 2:04.509 2:00.668
23 274 GIROUD Franck 2:00.680 2:04.463 2:00.680
24 66 ADDY James 2:01.151 2:01.151 2:03.528
25 123 BARBER Ashley 2:01.163 2:03.425 2:01.163
26 192 SHARP Richard 2:01.226 2:01.226 2:03.230
27 90 DECAIGNY Thomas 2:01.376 2:02.913 2:01.376
28 211 VERSCHEURE Thomas 2:01.467 2:01.467 2:05.728
29 266 DAMI Stefano 2:01.722 2:01.722 2:06.376
30 133 TOPLISS Ben 2:01.979 2:01.979 2:16.572
31 135 WALKER Chris 2:02.062 2:02.062 2:05.971
32 229 REYNAUD Lucien 2:02.069 2:02.069 2:06.838
33 125 BERBEN Michael 2:02.182 2:02.182 2:06.946
34 132 STAMPAERT Nicolas 2:02.266 2:02.266 2:07.330
35 256 LINDSTROM Carl 2:02.399 2:02.399 2:06.249
36 197 MIKKELSEN Andreas 2:02.617 2:02.617 2:07.636
37 46 GASPARDONE Paolo 2:02.662 2:05.976 2:02.662
38 124 ROBB Ben 2:02.803 2:02.803 2:07.620
39 255 ERICSSON FREDRIK 2:02.955 2:02.955 2:07.561
40 277 FUREGA Marco 2:03.060 2:03.060 2:09.299
41 161 PAUL Michael 2:03.142 2:04.802 2:03.142
42 236 MULDER Erwin 2:03.202 2:03.202 2:07.272
43 158 MINOGGIO Laurent 2:03.441 2:09.698 2:03.441
44 175 LLADOS Joan 2:03.493 2:03.493 2:06.743
45 169 VANMASSENHOVE Kevin 2:03.559 2:06.660 2:03.559
46 117 MITCHELL-THOMAS Malachi 2:03.561 2:03.561 2:05.884
47 205 FAYT Vincent 2:03.729 2:03.729 2:10.729
48 198 VAN GELEEN Boy 2:03.748 2:07.657 2:03.748
49 261 STAFFORD Ben Thomas 2:03.934 2:07.040 2:03.934
50 36 DEKINDT Kenneth 2:04.066 2:04.066 2:04.759
51 215 FELDER Erich 2:04.167 2:04.167 2:07.149
52 191 RUDD Lee 2:04.288 2:08.110 2:04.288
53 116 BOUILLON Sébastien 2:04.419 2:04.419 2:11.347
54 210 ALDEN Marcus 2:04.571 2:04.571
55 289 COHEN Maxime 2:04.591 2:10.276 2:04.591
56 153 MARTELLA Martia 2:04.635 2:04.635 2:10.310
57 71 WILLIMANN Reto 2:04.731 2:04.731 2:06.008
58 186 NORRIS Graeme 2:04.753 2:04.753 2:10.964
59 172 DUCHENE Patrick 2:04.914 2:04.914
60 47 BEAUPREZ Damon 2:04.930 2:06.307 2:04.930
61 126 DONCQ Antoine 2:05.020 2:11.355 2:05.020
62 231 MEIER Julian 2:05.187 2:05.187 2:10.453
63 296 BRAMBILLA Luca 2:05.255 2:11.667 2:05.255
64 275 HULSBOSCH Ralph 2:05.269 2:05.269 2:08.767
65 227 NYFFELER Robert 2:05.414 2:05.414 2:10.257
66 254 ALFKOG MICKAEL 2:05.445 2:11.366 2:05.445
67 253 BELUFFI Fabiano 2:05.456 2:05.456 2:12.458
68 76 LELOUP Amaury 2:05.708 2:05.708 2:07.579
69 228 PELLUS Pascal 2:05.722 2:05.722 2:12.687
70 24 VEYS Jerome 2:05.853 2:14.351 2:05.853
71 81 CORNISH Lewis 2:05.906 2:05.906
72 238 SIMPSON Robert 2:05.907 2:05.907 2:08.845
73 77 LELOUP Andrew 2:05.927 2:05.927 2:09.979
74 65 DELSUPEXHE Joel 2:06.042 2:06.042 2:06.685
75 122 O’LEARY Bradley 2:06.233 2:07.026 2:06.233
76 217 VANDERCAPPELLE Adrien 2:06.442 2:06.442 2:12.742
77 251 BLACK Jamie 2:06.756 2:06.756 2:15.335
78 234 GREGOIRE Michel 2:06.836 2:06.836 2:10.537
79 206 HOCHEDEZ Christopher 2:06.922 2:06.922 2:33.091
80 259 VANLERBERGHE Wouter 2:06.935 2:06.935 2:09.588
81 29 CHEVRE Didier 2:06.982 2:09.347 2:06.982
82 165 SMEYERS Chris 2:06.987 2:06.987 2:11.701
83 203 TRANEGAARD Niels 2:07.020 2:12.337 2:07.020
84 162 PETER Roman 2:07.122 2:07.122
85 286 LANDOLFI Livio 2:07.145 2:07.145 2:12.905
86 52 LINDEGGER Yves 2:07.154 2:07.154 2:08.196
87 84 JAUMOTTE Antoine 2:07.376 2:07.376 2:22.174
88 220 DEJONG Maxime 2:07.393 2:07.393 2:08.433
89 59 SALINGROS Christophe 2:07.502 2:07.502 2:09.573
90 200 GEENEN Côme 2:07.811 2:07.811 2:15.114
91 92 EARNSHAW John 2:07.970 2:07.970 2:13.317
92 216 GLOGGNER Mario 2:07.972 2:07.972 2:10.736
93 225 LISCHER Pascal 2:08.174 2:08.174 2:17.920
94 96 KAIVERS Romain 2:08.328 2:08.328 2:11.385
95 83 KLOK Arjan 2:08.529 2:09.105 2:08.529
96 207 PASC0 Steve 2:08.672 2:08.672
97 291 GROCRAVLA Randy 2:08.797 2:08.797 2:17.269
98 168 DEWILDE Mirando 2:08.981 2:08.981 2:14.058
99 214 DAEHLER Nicolas 2:09.091 2:09.091 2:14.769
100 241 VAN MEERHAEGHE Jean-Marie 2:09.100 2:09.100 2:10.872
101 151 LANGLOIS François 2:09.124 2:09.823 2:09.124
102 25 VANHUMBEECK Hans 2:09.204 2:13.141 2:09.204
103 252 BLANKENFJELL Niklas 2:09.298 2:10.537 2:09.298
104 115 MERTENS Frederic 2:09.317 2:10.773 2:09.317
105 294 LITTLE CONRAD 2:09.318 2:09.318 2:13.274
106 182 HARTLEY Robert Sebastian 2:09.570 2:09.570 2:17.424
107 48 JOLY Sylvain 2:09.917 2:12.774 2:09.917
108 202 NIELSEN Rasmus 2:10.073 2:10.073
109 223 HEHLI Armin 2:10.147 2:10.147 2:14.953
110 242 VAN EINDHOVEN Mark 2:10.182 2:16.715 2:10.182
111 88 BARBE Mathieu 2:10.274 2:10.274 2:15.309
112 61 VAN WEZEMAEL Tom 2:10.323 2:15.301 2:10.323
113 164 AYASSE Mickael 2:10.367 2:10.367 2:13.023
114 262 RANSON Nick 2:10.438 2:13.459 2:10.438
115 137 GRUPPEN Gert 2:10.613 2:16.573 2:10.613
116 98 FORD – DUNN Mathew 2:10.693 2:10.693 2:11.478
117 196 JENSEN Brian 2:10.719 2:10.719 2:14.658
118 272 GABREAUX MICKAEL 2:10.842 2:15.024 2:10.842
119 53 BOLETTE Grégory 2:10.971 2:13.671 2:10.971
120 278 RAES PIETER 2:11.015 2:11.015 2:13.631
121 34 BLAKEMAN Richard 2:11.264 2:11.264
122 287 HORWARD Jason 2:11.310 2:12.370 2:11.310
123 147 GILLARD Fabian 2:11.481 2:11.481 2:13.071
124 181 GEE Phil 2:11.491 2:17.363 2:11.491
125 248 MCGARVEY Roy 2:11.580 2:11.580 2:15.066
126 226 MUELLER Renato 2:11.767 2:11.767 2:13.212
127 185 LAMBOURNE Chris 2:11.817 2:11.817 2:19.067
128 139 PIRARD Joseph 2:11.983 2:11.983 2:15.733
129 39 DUBOIS Sébastien 2:12.020 2:12.020 2:14.093
130 82 ROOS Koen 2:12.049 2:12.049 2:12.323
131 260 BOUVY Frédéric 2:12.057 2:12.057 2:14.181
132 250 MARKS David 2:12.197 2:12.197
133 120 CAPOMASI Adrien 2:12.304 2:12.304 2:15.981
134 102 RYCKAERT Dries 2:12.333 2:16.892 2:12.333
135 281 KIRKMAN Ben 2:12.687 2:18.264 2:12.687
136 166 VANDEN DRIESSCHE Bryan 2:12.793 2:12.793 2:14.828
137 111 ALBERTINI Adelin 2:12.904 2:16.154 2:12.904
138 235 KORTEN Jan-Willem 2:12.915 2:12.915 2:15.458
139 240 VAN DER ZANDEN Maikel 2:13.000 2:14.962 2:13.000
140 188 SHARP Stuart 2:13.073 2:16.870 2:13.073
141 170 VERVOORT Jonathan 2:13.093 2:13.093 2:18.836
142 146 BENTLEY Simon 2:13.182 2:18.752 2:13.182
143 201 DIJKSTRA Evert 2:13.424 2:13.424 2:18.692
144 293 COURBET AYRTON 2:13.514 2:13.514
145 89 DUPREZ Kurt 2:13.584 2:13.584 2:15.674
146 194 HANSEN Thomas Bering 2:13.744 2:13.744 2:17.518
147 49 GASPAR JONATHAN 2:13.776 2:13.776 3:31.575
148 239 VAN DER SOMMEN Marco 2:13.852 2:17.016 2:13.852
149 273 FEDELE DAVID 2:13.889 2:13.889 2:18.597
150 237 OLIE Sander 2:14.151 2:15.224 2:14.151
151 160 ORBAN Axel 2:14.397 2:14.397 2:23.494
152 258 MAES Pieter 2:14.486 2:14.486 2:19.514
153 105 JUGLARET Johan 2:14.500 2:19.459 2:14.500
154 37 OMAR Isaak 2:14.953 2:14.953 2:15.525
155 94 FORD Michael 2:14.983 2:18.955 2:14.983
156 55 GEORGES Maximilien 2:15.139 2:15.139 2:16.994
157 177 GESSON Manuel 2:15.173 2:15.173 2:23.477
158 107 VANLERBERGHE Roel 2:15.349 2:15.349 2:16.151
159 27 BOUGELET Eric 2:15.415 2:15.415 2:17.824
160 189 RUDD Ryan 2:15.623 2:21.363 2:15.623
161 130 TOPLISS Keith 2:15.672 2:20.280 2:15.672
162 69 JACQUES Didier 2:15.709 2:15.709 2:21.629
163 58 VERCAUTEREN Kevin 2:15.742 2:17.057 2:15.742
164 109 ANTHONI Ronny 2:15.756 2:15.756 2:21.135
165 40 FIELD Leigh 2:15.757 2:15.757
166 222 HAAG Eugen 2:15.761 2:17.110 2:15.761
167 283 SAUCIN Kevin 2:15.784 2:15.784 2:17.399
168 50 CLARINVAL Adrien 2:15.935 2:15.935 2:17.248
169 142 DE MEZURE Peter 2:15.998 2:15.998 2:30.406
170 178 FLETCHER Paul 2:16.087 2:20.666 2:16.087
171 176 DUBOIS Sylvain 2:16.105 2:16.105 2:23.524
172 249 MCGARVEY Mark 2:16.785 2:16.785 2:17.758
173 85 DEMOLDER Antoine 2:16.833 2:19.242 2:16.833
174 106 KÖBERLE Stefan 2:16.925 2:24.628 2:16.925
175 157 LE GRELLE Fabian 2:17.036 2:17.036
176 264 VAN DEN BROECK 2:17.234 2:17.234 2:20.376
177 195 HORNE Mikkel 2:17.387 2:17.387 2:18.181
178 79 BERANGER Grégory 2:17.716 2:17.716 2:20.048
179 28 MARIAULE John 2:17.983 2:17.983 2:25.136
180 221 ROLIN Geoffrey 2:18.052 2:23.111 2:18.052
181 292 GROCRAVLA Geslin 2:18.245 2:18.245 2:20.052
182 199 MOESTRUP Troels 2:18.495 2:18.495 2:27.300
183 179 GARNET Mitch 2:18.558 2:18.558 2:20.934
184 70 CONNELL Owen 2:18.609 2:19.090 2:18.609
185 246 ZOONTJENS Nicky 2:18.742 2:18.742 2:21.673
186 193 DALSGAARD Anders 2:18.994 2:22.052 2:18.994
187 114 MEIRE Pieterjan 2:19.301 2:19.301 2:25.050
188 41 MARTIN Philippe 2:19.383 2:19.383 2:25.251
189 150 MICHEL Xavier 2:19.800 2:19.800 2:24.530
190 280 GOVAERS Peter 2:20.174 2:28.495 2:20.174
191 159 NEIRINCK Kenny 2:20.224 2:20.224 2:23.514
192 148 HERMAN Charlie 2:20.348 2:21.987 2:20.348
193 295 DEHEN BENOIT 2:20.613 2:20.613 2:24.647
194 247 VAN LIESHOUT Paddy Peter 2:20.708 2:24.287 2:20.708
195 190 ROSSEEL Steph 2:20.857 2:20.857 2:23.666
196 140 DE CRAENE Willem 2:20.865 2:20.865 2:21.015
197 271 STEVENS Benoit 2:21.245 2:21.245 2:23.991
198 209 DUBOIS Laura 2:21.621 2:22.094 2:21.621
199 143 BECKER Samuel 2:21.806 2:27.496 2:21.806
200 68 LINS Derry 2:21.974 2:21.974 2:25.257
201 232 DILLEN Michael 2:22.002 2:22.002 3:26.308
202 128 ROBERTS Sam 2:22.188 2:22.188
203 156 MOREELS Joachim 2:22.258 2:25.204 2:22.258
204 97 HARMSEN Olaf 2:22.507 2:22.507 2:24.918
205 91 DEBUISSON Steve 2:22.602 2:22.602 2:25.201
206 56 GEORGES Claudy 2:22.796 2:22.796 2:27.945
207 263 MARKS Alan 2:22.947 2:22.947
208 93 EDWARDS Joe 2:22.987 2:22.987 2:29.686
209 108 LANGER Bernhard 2:23.828 2:23.828 2:27.874
210 212 VANDEKERCKHOVE Mike 2:23.951 2:29.925 2:23.951
211 171 MATAGNE Gil 2:24.048 2:24.048 2:26.880
212 87 BOURLARD Nicolas 2:24.060 2:24.897 2:24.060
213 51 GOUY Etienne 2:24.252 2:24.252 2:30.133
214 284 DIERICKX Bram 2:24.521 2:27.495 2:24.521
215 233 CALLENS Olivier 2:25.387 2:25.387 2:28.297
216 187 MOUTHUY Jean-Francois 2:25.467 2:25.467 2:28.873
217 173 CAPOUILLEZ Sylvain 2:25.537 2:25.537 2:28.337
218 149 HERMANS Jan 2:25.755 2:25.755 2:30.271
219 279 DE RADEMAEKER Bart 2:25.888 2:25.888 2:27.846
220 265 VANDERHEYDEN Birger 2:26.278 2:26.278 2:33.248
221 138 BONTE Sven 2:26.774 2:26.774 2:30.194
222 26 DE SAEDELEER David 2:28.117 2:28.117 2:28.155
223 145 FERREIRA Salomon 2:28.953 2:28.953 2:32.504
224 95 FRITSCH Juergen 2:29.029 2:29.029 2:31.766
225 152 LARDIN Jean-Claude 2:30.162 2:38.536 2:30.162
226 243 VAN LOOCKE Dimitri 2:30.249 2:30.249 2:40.613
227 119 NIJLAND Joost 2:31.920 2:34.345 2:31.920
228 155 MATHIEU Cédric 2:32.222 2:32.222 2:35.003
229 118 BELL Scott 2:32.273 2:32.273
230 86 CORKETT Darren 2:33.791 2:33.791
231 163 SCHEERS Joffroy 2:35.790 2:41.186 2:35.790
232 73 RAUSCH Michael 2:36.812 2:36.812 2:38.899
233 219 BRESACQ Jean-Pierre 2:39.282

Photo : www.fdavid.be

Laisser un commentaire

Votre adresse de messagerie ne sera pas publiée. Les champs obligatoires sont indiqués avec *